Weather History for Crestview, FL

Change the Weather History Date:

Thursday, August 14, 2014

  Actual Average Record
Temperature  
Mean Temperature 79 °F -  
Max Temperature 91 °F - - ()
Min Temperature 68 °F - - ()
Cooling Degree Days 14    
Growing Degree Days 29 (Base 50)    
Moisture  
Dew Point 70 °F    
Average Humidity 72    
Maximum Humidity 97    
Minimum Humidity 52    
Precipitation  
Precipitation 0.00 in - - ()
Sea Level Pressure  
Sea Level Pressure 29.99 in    
Wind  
Wind Speed 4 mph (NNW)    
Max Wind Speed 8 mph    
Max Gust Speed -    
Visibility 10 miles    
Events      
T = Trace of Precipitation, MM = Missing Value Source: NWS Daily Summary

Daily Weather History Graph

Daily Weather History Graph

Search for Another Location

Airport:

Trip Planner

Search our weather history database for the weather conditions in past years. The results will help you decide how hot, cold, wet, or windy it might be!

Date:

Astronomy

Aug. 14, 2014 Rise Set
Actual Time 6:11 AM CDT 7:29 PM CDT
Civil Twilight 5:46 AM CDT 7:54 PM CDT
Nautical Twilight 5:16 AM CDT 8:24 PM CDT
Astronomical Twilight 4:44 AM CDT 8:55 PM CDT
Moon 10:15 PM CDT (8/14) 10:26 AM CDT (8/14)
Length of Visible Light 14h 07m
Length of Day
13h 17m
Waning Gibbous, 79% of the Moon is Illuminated
Aug 14
Waning Gibbous
Aug 17
Last Quarter
Aug 25
New
Sep 2
First Quarter
Sep 8
Full

Hourly Weather History & Observations

Time (CDT) Temp. Heat Index Dew Point Humidity Pressure Visibility Wind Dir Wind Speed Gust Speed Precip Events Conditions
12:58 AM 76.1 °F - 71.1 °F 84% 29.99 in 10.0 mi North 4.6 mph - N/A   Clear
1:58 AM 73.8 °F - 70.7 °F 90% 29.97 in 10.0 mi North 4.6 mph - N/A   Clear
2:58 AM 73.4 °F - 68.4 °F 84% 29.97 in 10.0 mi North 3.5 mph - N/A   Clear
3:58 AM 72.1 °F - 68.5 °F 88% 29.99 in 10.0 mi NNW 3.5 mph - N/A   Clear
4:58 AM 71.2 °F - 66.9 °F 86% 29.99 in 10.0 mi North 2.3 mph - N/A   Clear
5:58 AM 68.7 °F - 67.8 °F 97% 29.99 in 10.0 mi North 4.6 mph - N/A   Clear
6:58 AM 70.2 °F - 67.3 °F 91% 30.01 in 10.0 mi North 1.2 mph - N/A   Clear
7:58 AM 76.5 °F - 67.3 °F 73% 30.02 in 10.0 mi ENE 3.5 mph - N/A   Clear
8:55 AM 81.3 °F 83.8 °F 67.3 °F 62% 30.04 in 10.0 mi NE 3.5 mph - N/A   Partly Cloudy
9:55 AM 85.3 °F 88.5 °F 67.8 °F 56% 30.02 in 10.0 mi NNE 4.6 mph - N/A   Scattered Clouds
10:55 AM 88.5 °F 92.7 °F 68.7 °F 52% 30.03 in 10.0 mi NE 3.5 mph - N/A   Scattered Clouds
11:55 AM 88.9 °F 94.2 °F 70.5 °F 54% 30.02 in 10.0 mi NNW 5.8 mph - N/A   Mostly Cloudy
12:55 PM 90.9 °F 97.3 °F 71.2 °F 52% 30.00 in 10.0 mi WNW 5.8 mph - N/A   Mostly Cloudy
1:55 PM 90.7 °F 97.4 °F 71.2 °F 53% 29.99 in 10.0 mi North 2.3 mph - N/A   Mostly Cloudy
2:55 PM 89.6 °F 96.2 °F 71.2 °F 55% 29.96 in 10.0 mi WNW 4.6 mph - N/A   Scattered Clouds
3:55 PM 89.8 °F 97.0 °F 72.3 °F 56% 29.94 in 10.0 mi NNW 6.9 mph - N/A   Scattered Clouds
4:55 PM 89.6 °F 96.2 °F 71.6 °F 55% 29.94 in 10.0 mi NW 4.6 mph - N/A   Scattered Clouds
5:55 PM 88.5 °F 95.3 °F 72.0 °F 58% 29.94 in 10.0 mi West 4.6 mph - N/A   Scattered Clouds
6:55 PM 85.5 °F 93.8 °F 74.8 °F 70% 29.96 in 10.0 mi SSW 8.1 mph - N/A   Scattered Clouds
7:55 PM 83.5 °F 90.6 °F 74.5 °F 74% 29.96 in 10.0 mi WSW 4.6 mph - N/A   Mostly Cloudy
8:56 PM 81.5 °F 86.7 °F 73.4 °F 76% 29.99 in 10.0 mi West 4.6 mph - N/A   Scattered Clouds
9:56 PM 79.9 °F - 73.2 °F 80% 29.99 in 10.0 mi West 3.5 mph - N/A   Clear
10:55 PM 77.4 °F - 72.3 °F 84% 29.99 in 10.0 mi NNW 2.3 mph - N/A   Clear
11:55 PM 75.6 °F - 72.0 °F 89% 29.99 in 10.0 mi NW 2.3 mph - N/A   Mostly Cloudy